User: anonymous   Login
Location: Delta State University
(33.7460°N, 90.7320°W)
Time: 17:02:58
(UTC-06:00)
Language:

Iridium 13 - Orbit

View from above orbital plane
View from above orbital plane
View from above satellite
View from above satellite

Ground track
Ground track

The orbit data is extracted from the following two-line orbital elements,

1 24840U 97030E   14331.52764843  .00000464  00000-0  15854-3 0   348
2 24840 086.3969 020.0694 0002190 104.6574 013.5418 14.34220008913268
Epoch (UTC): 27 November 2014 12:39:48
Eccentricity: 0.0002190
inclination: 86.3969°
perigee height: 776 km
apogee height: 779 km
right ascension of ascending node: 20.0694°
argument of perigee: 104.6574°
revolutions per day: 14.34220008
mean anomaly at epoch: 13.5418°
orbit number at epoch: 91326

The dashed part of the orbit path shows where the satellite is in the earth's shadow,  

DLR